Wroclaw, Polska

11:54 CEST dnia 26-kwiecień-2017 (GMT +0200)
Strachowice

Pogoda Historia dla EPWR - marzec, 2017

Change the Weather History Date:

Wtorek, marzec 21, 2017

  Actual Average Record
Temperature  
Temperatura średnia 52 ° F -  
Temperatura maksymalna 59 ° F 53 ° F 72 ° F (2014)
Temperatura minimalna 45 ° F 35 ° F 19 ° F (2003)
Degree Days  
stopnio-dni grzewczych 13    
Growing Degree Days 2 (Base 50)    
Moisture  
Punkt rosy 43 ° F    
Average Humidity 69    
Maximum Humidity 93    
Minimum Humidity 41    
Opady  
Opady 0.01 cali 0.05 cali - ()
Ciśnienie na poziomie morza  
Ciśnienie na poziomie morza 29.79 cali    
Wiatr  
Prędkość wiatru 7 mph ()    
Maksymalna prędkość wiatru 16 mph    
Max Gust Speed -    
Widzialność 7.0 mil    
Wydarzenia deszcz    
Averages and records for this station are not official NWS values.
T = Trace of Precipitation, MM = Missing Value Source: Averaged Metar Reports

Daily Weather History Graph

Daily Weather History Graph

Search for Another Location

Airport or City:

Trip Planner

Search our weather history database for the weather conditions in past years. The results will help you decide how hot, cold, wet, or windy it might be!

Date:

Astronomia

Mar. 21, 2017 Wschód Zachów
Aktualny czas 05:52 CET 18:07 CET
Zmierzch cywilny 05:19 CET 18:40 CET
Zmierzch żeglarski 04:40 CET 19:19 CET
świt/zmierzch astronomiczny 04:00 CET 20:00 CET
Księżyc 01:58 CET (3/21) 10:53 CET (3/21)
całkowite oświetlenie 13h 20m
Długość dnia
12h 14m
Ostatnia kwadra, 42% of the Moon is Illuminated
Marzec 21
Ostatnia kwadra
Marzec 28
Nowy
Kwiecień 3
Pierwsza kwadra
Kwiecień 11
Pełnia Księżyca
Kwiecień 19
Ostatnia kwadra

Hourly Weather History & Observations

czas (CET) Temp. czynnik chłodzący wiatru Punkt rosy Wilgotność Ciśnienie Widzialność Wind Dir Prędkość wiatru prędkość w porywie Precip Wydarzenia Warunki pogodowe
12:00 AM 50 ° F - 44 ° F 73% 29.73 cali 19 mi PdZd 4.5 mph - -   przewaga chmur
12:00 AM 50.0 ° F - 42.8 ° F 76% 29.71 cali - PdPdZd 4.6 mph - N/A   pogodnie
12:30 AM 50.0 ° F - 42.8 ° F 76% 29.71 cali - południowy 4.6 mph - N/A   pogodnie
1:00 AM 51 ° F - 43 ° F 67% 29.73 cali 25 mi ZdPdZd 4.5 mph - -   przewaga chmur
1:00 AM 50.0 ° F - 42.8 ° F 76% 29.71 cali - PdZd 4.6 mph - N/A   pogodnie
1:30 AM 50.0 ° F - 42.8 ° F 76% 29.71 cali - ZdPdZd 6.9 mph - N/A   pogodnie
2:00 AM 49 ° F - 42 ° F 70% 29.73 cali 25 mi ZdPdZd 6.7 mph - -   niewielkie zachmurzenie
2:00 AM 50.0 ° F - 41.0 ° F 71% 29.71 cali - PdZd 6.9 mph - N/A   pogodnie
2:30 AM 50.0 ° F - 41.0 ° F 71% 29.71 cali 6.2 mi PdZd 6.9 mph - N/A   niewielkie zachmurzenie
3:00 AM 48 ° F - 42 ° F 71% 29.73 cali 31 mi zachodni 6.7 mph - -   niewielkie zachmurzenie
3:00 AM 46.4 ° F 43.5 ° F 41.0 ° F 81% 29.71 cali 6.2 mi ZdPdZd 5.8 mph - N/A   obłoki zanikające
3:30 AM 48.2 ° F - 41.0 ° F 76% 29.71 cali 6.2 mi ZdPdZd 6.9 mph - N/A   przewaga chmur
4:00 AM 49 ° F - 42 ° F 70% 29.73 cali 31 mi zachodni 6.7 mph - -   przewaga chmur
4:00 AM 50.0 ° F - 41.0 ° F 71% 29.71 cali 6.2 mi ZdPdZd 8.1 mph - N/A   przewaga chmur
5:00 AM 50 ° F - 42 ° F 67% 29.74 cali 31 mi ZdPdZd 6.7 mph - -   przewaga chmur
5:00 AM 50.0 ° F - 41.0 ° F 71% 29.71 cali 6.2 mi ZdPdZd 6.9 mph - N/A   przewaga chmur
5:30 AM 50.0 ° F - 41.0 ° F 71% 29.74 cali 6.2 mi ZdPdZd 8.1 mph - N/A   przewaga chmur
6:00 AM 52 ° F - 42 ° F 60% 29.76 cali 31 mi zachodni 15.7 mph - -   pochmurno
6:00 AM 51.8 ° F - 41.0 ° F 67% 29.74 cali 6.2 mi zachodni 16.1 mph - N/A   przewaga chmur
6:30 AM 50.0 ° F - 41.0 ° F 71% 29.74 cali 6.2 mi zachodni 10.4 mph - N/A   przewaga chmur
7:00 AM 51 ° F - 43 ° F 65% 29.78 cali 25 mi zachodni 8.9 mph - -   przewaga chmur
7:00 AM 50.0 ° F - 41.0 ° F 71% 29.77 cali 6.2 mi zachodni 9.2 mph - N/A   przewaga chmur
7:30 AM 50.0 ° F - 41.0 ° F 71% 29.77 cali 6.2 mi ZdPdZd 8.1 mph - N/A   przewaga chmur
8:00 AM 51.8 ° F - 42.8 ° F 71% 29.77 cali 6.2 mi ZdPdZd 10.4 mph - N/A   przewaga chmur
8:30 AM 51.8 ° F - 41.0 ° F 67% 29.77 cali 6.2 mi ZdPdZd 10.4 mph - N/A   przewaga chmur
9:00 AM 53 ° F - 43 ° F 60% 29.80 cali 25 mi zachodni 11.2 mph - -   przewaga chmur
9:00 AM 51.8 ° F - 42.8 ° F 71% 29.77 cali 6.2 mi ZdPdZd 10.4 mph - N/A   przewaga chmur
9:30 AM 53.6 ° F - 41.0 ° F 62% 29.77 cali 6.2 mi ZdPdZd 9.2 mph - N/A   przewaga chmur
10:00 AM 55 ° F - 43 ° F 53% 29.80 cali 25 mi ZdPdZd 11.2 mph - -   przewaga chmur
10:00 AM 53.6 ° F - 42.8 ° F 67% 29.80 cali - ZdPdZd 10.4 mph - N/A   pogodnie
10:30 AM 55.4 ° F - 41.0 ° F 58% 29.80 cali - ZdPdZd 10.4 mph - N/A   pogodnie
11:00 AM 57 ° F - 43 ° F 49% 29.81 cali 25 mi ZdPdZd 11.2 mph - -   przewaga chmur
11:00 AM 55.4 ° F - 41.0 ° F 58% 29.80 cali - ZdPdZd 12.7 mph - N/A   pogodnie
11:30 AM 55.4 ° F - 41.0 ° F 58% 29.80 cali - ZdPdZd 12.7 mph - N/A   pogodnie
12:00 PM 58 ° F - 42 ° F 45% 29.81 cali 25 mi zachodni 8.9 mph - -   obłoki zanikające
12:00 PM 59.0 ° F - 42.8 ° F 55% 29.80 cali 6.2 mi ZdPdZd 12.7 mph - N/A   niewielkie zachmurzenie
12:30 PM 57.2 ° F - 41.0 ° F 55% 29.80 cali 6.2 mi ZdPdZd 11.5 mph - N/A   niewielkie zachmurzenie
1:00 PM 60 ° F - 43 ° F 41% 29.80 cali 25 mi ZdPdZd 11.2 mph - -   niewielkie zachmurzenie
1:00 PM 59.0 ° F - 41.0 ° F 51% 29.80 cali 6.2 mi zachodni 10.4 mph - N/A   obłoki zanikające
1:30 PM 59.0 ° F - 39.2 ° F 48% 29.80 cali 6.2 mi ZdPdZd 10.4 mph - N/A   obłoki zanikające
2:00 PM 59 ° F - 42 ° F 41% 29.80 cali 31 mi zachodni 8.9 mph - -   przewaga chmur
2:00 PM 57.2 ° F - 41.0 ° F 55% 29.77 cali 6.2 mi zachodni 8.1 mph - N/A   przewaga chmur
2:30 PM 59.0 ° F - 41.0 ° F 51% 29.77 cali 6.2 mi zachodni 8.1 mph - N/A   obłoki zanikające
3:00 PM 59 ° F - 43 ° F 43% 29.79 cali 31 mi zachodni 6.7 mph - -   pochmurno
3:00 PM 57.2 ° F - 41.0 ° F 55% 29.77 cali - zachodni 8.1 mph - N/A   pogodnie
3:30 PM 57.2 ° F - 41.0 ° F 55% 29.77 cali 6.2 mi zachodni 5.8 mph - N/A   niewielkie zachmurzenie
4:00 PM 58 ° F - 44 ° F 49% 29.79 cali 31 mi zachodni 4.5 mph - -   pochmurno
4:00 PM 57.2 ° F - 42.8 ° F 59% 29.77 cali 6.2 mi zachodni 4.6 mph - N/A   przewaga chmur
4:30 PM 55.4 ° F - 44.6 ° F 67% 29.77 cali 6.2 mi PnZd 4.6 mph - N/A   przewaga chmur
5:00 PM 56 ° F - 47 ° F 63% 29.80 cali 25 mi ZdPnZd 4.5 mph - - deszcz lekki deszcz
5:00 PM 55.4 ° F - 44.6 ° F 67% 29.80 cali 6.2 mi zachodni 4.6 mph - N/A deszcz lekki deszcz
5:30 PM 53.6 ° F - 46.4 ° F 77% 29.80 cali 6.2 mi ZdPdZd 3.5 mph - N/A   przewaga chmur
6:00 PM 54 ° F - 48 ° F 72% 29.82 cali 12 mi zachodni 4.5 mph - - deszcz lekki deszcz
6:00 PM 53.6 ° F - 46.4 ° F 77% 29.80 cali 6.2 mi ZdPdZd 3.5 mph - N/A deszcz lekki deszcz
6:30 PM 53.6 ° F - 46.4 ° F 77% 29.80 cali 6.2 mi ZdPdZd 3.5 mph - N/A deszcz lekki deszcz
7:00 PM 52 ° F - 49 ° F 85% 29.84 cali 9 mi PdZd 2.2 mph - - deszcz lekki deszcz
7:00 PM 51.8 ° F - 46.4 ° F 82% 29.83 cali 6.2 mi ZdPdZd 4.6 mph - N/A deszcz lekki deszcz
7:30 PM 50.0 ° F - 46.4 ° F 87% 29.83 cali 6.2 mi zachodni 5.8 mph - N/A deszcz lekki deszcz
8:00 PM 52 ° F - 47 ° F 76% 29.85 cali 12 mi zachodni 4.5 mph - - deszcz lekki deszcz
8:00 PM 51.8 ° F - 44.6 ° F 76% 29.83 cali 6.2 mi zachodni 5.8 mph - N/A deszcz lekki deszcz
8:30 PM 50.0 ° F - 46.4 ° F 87% 29.86 cali 3.1 mi PnPnZd 12.7 mph - N/A deszcz lekki deszcz
9:00 PM 48.2 ° F - 46.4 ° F 93% 29.86 cali 6.2 mi północny 6.9 mph - N/A   przewaga chmur
9:30 PM 48.2 ° F - 46.4 ° F 93% 29.86 cali 6.2 mi PnPnZd 5.8 mph - N/A   przewaga chmur
10:00 PM 50 ° F - 47 ° F 85% 29.88 cali 9 mi północny 2.2 mph - - deszcz lekki deszcz
10:00 PM 48.2 ° F - 44.6 ° F 87% 29.86 cali 6.2 mi PnPnZd 5.8 mph - N/A deszcz lekki deszcz
10:30 PM 48.2 ° F - 44.6 ° F 87% 29.89 cali 6.2 mi PnZd 12.7 mph - N/A deszcz lekki deszcz
11:00 PM 49 ° F - 46 ° F 87% 29.90 cali 12 mi PnZd 2.2 mph - - deszcz lekki deszcz
11:00 PM 46.4 ° F 44.3 ° F 44.6 ° F 93% 29.89 cali 6.2 mi ZdPnZd 4.6 mph - N/A deszcz lekki deszcz
11:30 PM 46.4 ° F 42.4 ° F 44.6 ° F 93% 29.89 cali 6.2 mi PnZd 8.1 mph - N/A   przewaga chmur